Regional Weather Roundup
Issued by NWS

Home | Current Version | Previous Version | Graphics & Text | Print | Product List | Glossary On
Versions: 1 2 3 4 5 6 7 8 9 10 11 12 13 14 15 16 17 18 19 20 21 22 23 24 25 26 27 28 29 30 31 32 33 34 35 36 37 38 39 40 41 42 43 44 45 46 47 48 49 50
000
ASUS43 KLMK 061410
RWRKY
KENTUCKY REGIONAL WEATHER ROUNDUP
NATIONAL WEATHER SERVICE LOUISVILLE KY
1000 AM EDT MON JUL 06 2015

NOTE "FAIR" INDICATES FEW OR NO CLOUDS BELOW 12,000 FEET
WITH NO SIGNIFICANT WEATHER AND/OR OBSTRUCTIONS TO VISIBILITY.

KYZ001>023-026-027-061>063-070>075-061500-
WESTERN AND SOUTH CENTRAL KENTUCKY

CITY           SKY/WX    TMP DP  RH WIND       PRES   REMARKS
PADUCAH        CLOUDY    75  71  87 S6        30.09S
HENDERSON      MOSUNNY   77  72  83 SW7       30.07S
OWENSBORO      SUNNY     79  73  81 SW10      30.08F HAZE
HOPKINSVILLE   MOSUNNY   78  72  83 S5        30.11F
BOWLING GREEN  CLOUDY    75  71  87 SW7       30.13S
GLASGOW        CLOUDY    73  73 100 W8        30.13S FOG
$$

KYZ024-025-028>034-038-045-046-053-061500-
NORTH CENTRAL KENTUCKY

CITY           SKY/WX    TMP DP  RH WIND       PRES   REMARKS
LOUISVILLE/SDF MOSUNNY   75  67  76 SE6       30.09F
LOUISVILLE/LOU SUNNY     74  67  78 VRB6      30.10F
FORT KNOX      SUNNY     76  70  81 S6        30.09F
$$

KYZ035>037-039>044-047>052-055>060-089>105-061500-
NORTHEAST KENTUCKY

CITY           SKY/WX    TMP DP  RH WIND       PRES   REMARKS
LEXINGTON      SUNNY     74  67  78 W7        30.13F
COVINGTON      MOSUNNY   73  65  75 SW5       30.12R
FRANKFORT      SUNNY     74  67  78 VRB3      30.12S
$$

KYZ054-064>069-076>088-106>120-061500-
SOUTHEAST KENTUCKY

CITY           SKY/WX    TMP DP  RH WIND       PRES   REMARKS
JACKSON        CLOUDY    68  66  93 CALM      30.16R FOG
LONDON         CLOUDY    71  65  81 CALM      30.16S
SOMERSET       CLOUDY    68  68 100 S5        30.16F FOG
MIDDLESBORO    CLOUDY    67  67  98 E3        30.18R
MONTICELLO     MOSUNNY   74  73  96 SW7       30.18S FOG
$$



USA.gov is the U.S. government's official web portal to all federal, state and local government web resources and services.